Flag for Brazil Weather past 2 weeks in Passo Fundo, Rio Grande do Sul, Brazil

Now
55 °F

Passing clouds.


Feels Like: 54 °F
Forecast: 47 / 70 °F
Wind: 6 mph from East

Location: Porto Alegre Aero-Porto

Current Time: Sep 17, 2014 at 5:38:38 AM

Latest Report: Sep 17, 2014 at 5:00 AM


Visibility: N/A

Pressure: 30.09 "Hg

Humidity: 94%

Dew point: 54 °F

Location of Passo FundoLocation

Historic Weather in Passo Fundo — Graph

°F

Passo Fundo temperature yesterday

Maximum temperature yesterday: 68 °F (at 2:00 PM)
Minimum temperature yesterday: 55 °F (at 6:00 AM)
Average temperature yesterday: 62 °F

Past Weeks' High & Low Weather Summary

 TemperatureHumidityPressure
High91 °F (Sep 9, 3:00 PM)100% (Sep 2, 7:00 AM)30.24 "Hg (Sep 2, 7:00 AM)
Low55 °F (Sep 2, 6:00 AM)36% (Sep 9, 4:00 PM)29.62 "Hg (Sep 10, 4:00 AM)
Average65 °F81%30.00 "Hg
* Reported Sep 2 4:00 AM — Sep 17 4:00 AM, Passo Fundo, Weather by CustomWeather, © 2014

Note: Actual official high and low records may vary slightly from our data, if they occured in-between our weather recording intervals... More about our weather records

Advertising

Passo Fundo weather history for previous 24 hours

 ConditionsComfort  
Time TempWeatherWind HumidityBarometerVisibility
4:00 AM
Sep 17
55 °FPassing clouds.5 mph94%30.09 "HgN/A
3:00 AM55 °FPassing clouds.6 mph94%30.09 "HgN/A
2:00 AM55 °FPassing clouds.5 mph94%30.12 "HgN/A
1:00 AM55 °FPassing clouds.8 mph94%30.09 "HgN/A
12:00 AM57 °FPassing clouds.8 mph88%30.09 "HgN/A
11:00 PM
Sep 16
55 °FClear.8 mph88%30.12 "Hg10 mi
10:00 PM57 °FClear.7 mph82%30.12 "Hg10 mi
9:00 PM61 °FClear.3 mph72%30.09 "Hg10 mi
8:00 PM61 °FClear.8 mph72%30.09 "Hg10 mi
7:00 PM63 °FClear.9 mph68%30.07 "Hg10 mi
6:00 PM68 °FClear.2 mph49%30.07 "Hg10 mi
5:00 PM68 °FSunny.6 mph49%30.07 "Hg10 mi
4:00 PM68 °FScattered clouds.7 mph53%30.07 "HgN/A
3:00 PM68 °FScattered clouds.6 mph49%30.07 "HgN/A
2:00 PM68 °FPartly sunny.7 mph53%30.07 "HgN/A
1:00 PM66 °FPartly sunny.6 mph56%30.09 "HgN/A
12:00 PM66 °FPartly sunny.7 mph60%30.09 "HgN/A
11:00 AM64 °FPartly sunny.6 mph73%30.12 "HgN/A
10:00 AM63 °FPartly sunny.8 mph73%30.09 "HgN/A
9:00 AM61 °FScattered clouds.8 mph77%30.09 "HgN/A
8:00 AM59 °FPassing clouds.8 mph82%30.07 "HgN/A
7:00 AM55 °FScattered clouds.7 mph94%30.07 "HgN/A
6:00 AM55 °FScattered clouds.6 mph88%30.04 "HgN/A
5:00 AM57 °FPartly cloudy.8 mph88%30.04 "HgN/A
Weather by CustomWeather, © 2014

See weather overviewHow to use our weather pages